Showing default

AETHER-5, 67376

Orbit data source: Space-Track

AETHER-5, 67376 is a payload satellite owned by Kepler Comms (CA) in SSO that was launched on Sun, 11 Jan 2026 UTC via an FALCON 9 launch vehicle from the Air Force Western Test Range (AFWTR). Payload-class satellites include a variety of spacecraft equipped with specific instruments for various scientific and technological missions. These include communications satellites like Starlink; space stations such as the ISS; scientific satellites like the Hubble; Earth observation satellites from companies like Planet Labs, Umbra, and HawkEye 360; GPS; miniature CubeSats for education and research; and military/defense satellites.

Loading next visibility...
Identifier
67376, 2026-004P
Orbit
SSO
Country
Flag of CACA
Related business
Manufacturer
Kepler Comms
Mission
Operational Commercial Communications
Bus & Motor
KEPLER GEN2B, Unknown motor
Mass
300 kg wet, 300 kg dry
Launch date (UTC)
2026-01-11 (8 months ago)
Launch vehicle
FALCON 9
Launch site
Air Force Western Test Range (AFWTR)
Object type
Payload
Rocket body
Debris
Shape & HBR
Box + 2 Pan, 7.6 m
Radar Cross Section
4.448 m², Large (>1 m²)

Expand to show TLE details & history
Last TLE update: 21 hours ago

TLE from 21 hours ago
0 AETHER-5
1 67376U 26004P   26264.02322981  .00000371  00000-0  48702-4 0  9994
2 67376  97.8112 260.8332 0000898 162.1954 197.9293 14.85883679 37522
Epoch: 2026-09-21T00:33Z
TLE epoch observation values (Epoch: 2026-09-21T00:33:27.055Z)
Latitude
-0.00003°
Longitude
-107.43854°
Altitude
614.443 km
Speed
7.552 km/s
True Right ascension
17h 23m 19s
True Declination
0° 00' 00"
Sunlit
Object was in daylight at epoch
Visualization orbit readout
Latitude
Unknown
Longitude
Unknown
Altitude
Unknown
Speed
Unknown
Apparent Right ascension
Unknown
Apparent Declination
Unknown
Sunlit
N/A
Visualization observer readout
Local Sidereal Time
14:28:14
Azimuth
Unknown
Elevation
Unknown
Doppler factor
Unknown
Orbital elements
Apogee altitude
608.47 km
Perigee altitude
607.215 km
Semi-major axis
6,985.98 km
Eccentricity
0.00009
Inclination
97.8112°
RAAN
260.8332°
Arg. of periapsis
162.1954°
True anomaly
197.92613°
Mean anomaly
197.9293°
Eccentric anomaly
197.92772°
Mean motion
3.71708 °/min
Orbital period
96.85 mins
BSTAR
0.000048702
Loading maneuver chart data...
Computing Atmospheric mass density...
Loading historical data...
Loading historical data...
Loading historical data...
Loading historical data...
Loading historical data...
Loading historical data...
Loading historical data...

Documentation

Showing up to 5 results
|